Regional Weather Roundup
Issued by NWS

Home | Current Version | Previous Version | Text Only | Print | Product List | Glossary Off
Versions: 1 2 3 4 5 6 7 8 9 10 11 12 13 14 15 16 17 18 19 20 21 22 23 24 25 26 27 28 29 30 31 32 33 34 35 36 37 38 39 40 41 42 43 44 45 46 47 48 49 50

000
ASUS43 KMPX 051310
RWRMN
WEATHER ROUNDUP FOR MINNESOTA
NATIONAL WEATHER SERVICE TWIN CITIES/CHANHASSEN MN
800 AM CDT TUE MAY 05 2015


NOTE: "FAIR" INDICATES FEW OR NO CLOUDS BELOW 12,000 FEET WITH NO
SIGNIFICANT WEATHER AND/OR OBSTRUCTIONS TO VISIBILITY. N/A MEANS
CURRENT SKY AND/OR WEATHER CONDITIONS ARE NOT AVAILABLE.

MNZ060>063-068>070-051400-
   Twin Cities Metro

CITY           SKY/WX    TMP DP  RH WIND       PRES   REMARKS
TWIN CITIES    MOSUNNY   55  39  54 E12       30.20R
ST PAUL        SUNNY     54  40  59 E9        30.22R
CRYSTAL        SUNNY     55  38  52 E8        30.20R
BLAINE         MOSUNNY   55  39  54 E10       30.21R
LAKEVILLE      MOSUNNY   50  41  71 E9        30.20R
EDEN PRAIRIE   SUNNY     54  38  54 E10       30.19R
SOUTH ST PAUL  SUNNY     54  38  55 E9        30.21R
LAKE ELMO      FAIR      54  39  58 E8        30.22S
$$
MNZ001>005-007-008-013>017-022>024-027-028-051400-
   Northwest Minnesota

CITY           SKY/WX    TMP DP  RH WIND       PRES   REMARKS
BEMIDJI        SUNNY     47  35  63 CALM      30.23S
HALLOCK        SUNNY     52  28  40 S10       30.17R
ROSEAU         SUNNY     52  30  43 S9        30.19S
WARROAD        SUNNY     54  32  43 S7        30.20S
THIEF RVR FALL SUNNY     54  27  35 S10       30.21R
CROOKSTON      SUNNY     54  28  37 S9        30.19S
FOSSTON        SUNNY     55  27  33 SE7       30.20F
DETROIT LAKES  SUNNY     52  28  40 SE9       30.22R
MOORHEAD       SUNNY     54  28  37 SE6       30.19S
PARK RAPIDS    SUNNY     51  29  42 SE7       30.22S
MAHNOMEN       FAIR      54  27  35 SE7       30.21S
$$
MNZ006-009>011-018-025>026-051400-
   North Central Minnesota

CITY           SKY/WX    TMP DP  RH WIND       PRES   REMARKS
BAUDETTE       SUNNY     47  35  63 S5        30.22R
FLAG ISLAND    SUNNY     48  39  71 S8        30.19R
INTL FALLS     SUNNY     48  32  53 CALM      30.23S
WASKISH        SUNNY     54  34  47 CALM      30.22S
BIG FORK       SUNNY     46  36  66 CALM      30.25S
LONGVILLE      SUNNY     45  39  81 CALM      30.24R
GRAND RAPIDS   SUNNY     46  25  42 SE5       30.26R
CRANE LAKE     SUNNY     39  34  81 CALM      30.27S
ORR            SUNNY     50  28  43 CALM      30.23S
COOK           SUNNY     46  30  53 CALM      30.26S HAZE
WALKER         FAIR      50  32  51 CALM      30.24R
$$
MNZ012-019>021-037-051400-
   Northeast Minnesota

CITY           SKY/WX    TMP DP  RH WIND       PRES   REMARKS
DULUTH         SUNNY     52  29  41 E6        30.28R
ELY            SUNNY     45  34  65 CALM      30.27S
HIBBING        SUNNY     46  30  53 CALM      30.27R
EVELETH        SUNNY     46  30  53 CALM      30.28R
DULUTH HARBOR  SUNNY     43  34  70 NE3       30.30R
TWO HARBORS    SUNNY     54  34  47 CALM      30.27R
SILVER BAY     SUNNY     46  36  66 CALM      30.27S
GRAND MARAIS     N/A     40  33  76 CALM      30.30R
G MARAIS ARPRT SUNNY     52  28  40 CALM      30.30R
$$
MNZ029>031-032-039>041-046>048-054>057-064-051400-
   West Central Minnesota

CITY           SKY/WX    TMP DP  RH WIND       PRES   REMARKS
FERGUS FALLS   SUNNY     54  27  35 SE8       30.20S
WHEATON        SUNNY     46  28  49 CALM      30.19F
MORRIS         SUNNY     55  27  33 E15       30.16F
ALEXANDRIA     SUNNY     53  25  33 E10       30.21S
ELBOW LAKE     FAIR      53  30  41 E10       30.19R
WADENA         SUNNY     45  30  57 E6        30.22R
GLENWOOD       SUNNY     50  27  40 E8        30.20S
APPLETON       SUNNY     54  28  37 E10       30.16S
BENSON         SUNNY     54  25  32 SE7       30.17S
ORTONVILLE     SUNNY     52  27  37 SE3       30.17S
MADISON        SUNNY     48  30  49 CALM      30.16S
WILLMAR        FAIR      55  28  35 E9        30.18F
$$
MNZ033>034-036-042>043-049>051-058-059-051400-
   Central Minnesota

CITY           SKY/WX    TMP DP  RH WIND       PRES   REMARKS
ST CLOUD       SUNNY     52  31  44 E9        30.21S
SAUK CENTRE    FAIR      51  28  41 E8        30.21S
PAYNESVILLE    SUNNY     50  29  44 N8        30.20S
AITKIN         SUNNY     45  36  70 CALM      30.23S
PINE RIVER     SUNNY     43  36  75 CALM      30.26S
BRAINERD       SUNNY     49  34  56 CALM      30.24R
STAPLES        SUNNY     46  30  53 E3        30.22S
LONG PRAIRIE   FAIR      50  28  43 E7        30.22S
LITTLE FALLS   SUNNY     52  25  35 E6        30.21F
LITCHFIELD     SUNNY     55  30  38 E7        30.19S
BUFFALO        SUNNY     52  34  50 NE12      30.21R
MAPLE LAKE     SUNNY     53  37  55 E9        30.21R
$$
MNZ037-044-045-052-053-051400-
   East Central Minnesota

CITY           SKY/WX    TMP DP  RH WIND       PRES   REMARKS
PRINCETON      SUNNY     54  36  50 E7        30.23R
MORA           SUNNY     50  32  50 E6        30.25S
CAMBRIDGE      SUNNY     55  37  50 E7        30.21S
RUSH CITY      SUNNY     50  34  54 CALM      30.24S
MOOSE LAKE     SUNNY     45  32  61 N3        30.25R
HINCKLEY       FAIR      50  34  53 E5        30.25S
CLOQUET        SUNNY     48  27  43 E3        30.27R
MCGREGOR       SUNNY     45  34  65 CALM      30.26R
$$
MNZ071>073-080-081-089-090-097-098-051400-
   Southwest Minnesota

CITY           SKY/WX    TMP DP  RH WIND       PRES   REMARKS
MONTEVIDEO     SUNNY     54  30  40 SE8       30.17S
GRANITE FALLS  SUNNY     52  29  41 NE3       30.18R
CANBY          SUNNY     46  36  67 CALM      30.17S
MARSHALL       MOSUNNY   48  28  46 CALM      30.15S
REDWOOD FALLS  MOSUNNY   54  30  40 E7        30.16R
OLIVIA         SUNNY     52  28  40 E8        30.15S
PIPESTONE      PTSUNNY   54  28  37 E9        30.12F
WINDOM         PTSUNNY   54  32  43 NE10      30.14S
WORTHINGTON    PTSUNNY   54  32  43 NE13      30.12F
JACKSON        CLOUDY    55  32  41 E13       30.13S
TRACY          MOSUNNY   52  31  44 E7        30.15S
SLAYTON        PTSUNNY   53  29  39 NE5       30.14S
$$
MNZ065>067-074>077-082>085-091>093-051400-
   South Central Minnesota

CITY           SKY/WX    TMP DP  RH WIND       PRES   REMARKS
MANKATO        PTSUNNY   55  39  54 E10       30.16R
NEW ULM        MOSUNNY   54  30  40 E10       30.16R
ST JAMES       PTSUNNY   55  34  44 NE10      30.15F
FAIRMONT       CLOUDY    54  36  50 NE8       30.13S
GLENCOE        MOSUNNY   55  36  49 E9G16     30.17S
FARIBAULT      PTSUNNY   54  41  62 E7        30.19R
OWATONNA       PTSUNNY   55  39  54 E14       30.17S
WASECA         PTSUNNY   54  39  58 E12       30.17R
ALBERT LEA     DRIZZLE   52  52 100 E8        30.16R
$$
MNZ078>079-086>088-094>096-051400-
   Southeast Minnesota

CITY           SKY/WX    TMP DP  RH WIND       PRES   REMARKS
ROCHESTER      LGT RAIN  51  49  92 E16       30.21R FOG
RED WING       MOSUNNY   55  39  54 E10       30.20R
STANTON        MOSUNNY   55  40  58 E9        30.18S
DODGE CENTER   CLOUDY    57  45  62 E15       30.18R
WINONA         CLOUDY    55  43  62 SE9       30.22R
AUSTIN         DRIZZLE   52  50  93 E12G17    30.16R
PRESTON        CLOUDY    49  47  92 E14       30.20R
$$
ABBREVIATIONS USED IN REMARKS
   TC - TEMPERATURES IN CELSIUS
  WCI - WIND CHILL INDEX
   HX - HEAT INDEX
  VSB - VISIBILITY
$$


USA.gov is the U.S. government's official web portal to all federal, state and local government web resources and services.